Location: Staunton
(38.1490°N, 79.0720°W)
Time: 00:08:01
(UTC-04:00)

ISS - Pass Details

Date: 08 May 2021
Orbit: 417 x 422 km, 51.6° (Epoch: 18 May)

Event Time Altitude Azimuth Distance (km) Brightness Sun altitude
Exits shadow 03:01:09 11° 348° (NNW) 1,436 -0.5 -29.1°
Drops below altitude 10° 03:02:04 10° 4° (N) 1,503 -0.2 -29.0°
Sets 03:05:32 0° 41° (NE) 2,370 1.3 -28.7°
